#timestamp,LO_Frequency,Hit 
1503748815.8,286047002.9,N
1503748835.6,286047003.5,N
1503748855.5,286047003.7,N
1503748875.3,286047002.9,N
1503748895.1,286047003.9,N
1503748915.9,286047001.3,N
1503748935.7,286047002.6,N
1503748955.5,286046999.9,N
1503748975.4,286047002.3,N
1503748995.2,286046999.7,N
1503749015.0,286047002.1,N
1503749015.9,286047002.1,N
1503749035.8,286046998.9,N
1503749055.6,286047001.1,N
1503749075.4,286047000.9,N
1503749095.2,286047002.6,N
1503749115.1,286047005.6,N
1503749116.0,286047005.6,N
1503749135.8,286047001.3,N
1503749155.6,286047000.5,N
1503749175.5,286046998.6,N
1503749195.3,286046996.5,N
1503749215.1,286046996.7,N
1503749235.9,286046998.1,N
1503749255.7,286046999.2,N
1503749275.5,286046997.1,N
1503749295.4,286046995.4,N
1503749315.2,286046993.4,N
1503749335.0,286046996.1,N
1503749335.9,286046996.1,N
1503749355.8,286046994.3,N
1503749375.6,286046992.8,N
1503749395.4,286046992.8,N
1503749415.3,286046990.9,N
1503749435.1,286046994.2,N
1503749455.8,286046991.9,N
1503749475.7,286046995.2,N
1503749495.5,286046995.9,N
1503749515.3,286046996.0,N
1503749535.2,286046991.8,N
1503749555.9,286046994.4,N
1503749575.7,286046993.9,N
1503749595.6,286046995.5,N
1503749615.4,286046994.0,N
1503749635.2,286046994.8,N
1503749655.0,286046993.2,N
1503749656.0,286046993.2,N
1503749675.8,286046990.3,P
1503749695.6,286046996.3,N
1503749715.5,286046994.0,N
1503749735.3,286046993.4,N
1503749755.2,286046990.1,P
1503749775.0,286046999.0,N
1503749775.9,286046999.0,N
1503749795.7,286046996.6,N
1503749815.6,286046997.1,N
1503749835.4,286046998.3,N
1503749855.2,286047001.2,N
1503749875.1,286046995.2,N
1503749876.0,286046995.2,N
1503749895.8,286046997.3,N
1503749915.6,286046997.8,N
1503749935.5,286046993.4,N
1503749955.3,286046993.8,N
1503749975.1,286046996.2,N
1503749995.9,286046994.8,N
1503750015.7,286046994.2,N
1503750035.5,286046994.3,N
1503750055.4,286046994.3,N
1503750075.2,286046994.3,N
1503750095.0,286046992.2,P
1503750095.9,286046992.2,P
1503750115.8,286046994.9,P
1503750135.6,286046997.3,N
1503750155.4,286047000.8,N
1503750175.3,286046997.1,N
1503750195.1,286046997.4,N
1503750215.8,286046996.4,N
1503750235.7,286046997.1,N
1503750255.5,286046996.6,N
1503750275.3,286046997.6,N
1503750295.2,286046997.7,N
1503750315.9,286046998.3,N
1503750335.7,286046997.9,N
1503750355.6,286046997.6,N
1503750375.4,286046995.1,N
1503750395.2,286046996.3,N
1503750415.1,286046993.3,P
1503750416.0,286046993.3,P
1503750435.8,286046997.0,N
1503750455.6,286046999.4,N
1503750475.5,286046997.9,N
1503750495.3,286046994.9,N
1503750515.1,286046995.2,N
1503750535.9,286046997.1,N
1503750555.7,286046999.3,N
1503750575.5,286047000.3,N
1503750595.3,286047004.0,N
1503750615.2,286047004.5,N
1503750635.0,286047004.1,N
1503750635.9,286047004.1,N
1503750655.7,286047000.2,N
1503750675.6,286046999.8,N
1503750695.4,286047002.7,N
1503750715.2,286047004.2,N
1503750735.1,286047003.9,N
1503750736.0,286047003.9,N
1503750755.8,286047003.4,N
1503750775.6,286047000.1,N
1503750795.5,286047000.9,N
1503750815.3,286046998.8,N
1503750835.1,286046998.2,N
1503750855.9,286046998.9,N
1503750875.7,286046998.9,N
1503750895.5,286046997.6,N
1503750915.4,286046993.9,N
1503750935.2,286046993.8,N
1503750955.0,286046993.2,N
1503750955.9,286046993.2,N
1503750975.8,286046990.4,N
1503750995.6,286046989.0,N
1503751015.4,286046991.1,N
1503751035.2,286046990.3,N
1503751055.1,286046994.1,N
1503751056.0,286046994.1,N
1503751075.8,286046990.1,N
1503751095.6,286046988.5,N
1503751115.5,286046987.1,N
1503751135.3,286046991.1,N
1503751155.1,286046986.9,N
1503751175.9,286046985.9,N
1503751195.7,286046984.9,N
1503751215.5,286046981.5,P
1503751235.4,286046988.0,N
1503751255.2,286046986.0,N
1503751275.0,286046986.1,N
1503751276.0,286046986.1,P
1503751295.8,286046998.5,N
1503751315.6,286046995.0,N
1503751335.4,286046995.4,N
1503751355.3,286046999.6,N
1503751375.1,286046997.0,N
1503751395.8,286046997.0,N
1503751415.7,286046996.7,N
1503751435.5,286046995.2,N
1503751455.3,286046995.1,N
1503751475.2,286046996.3,N
1503751495.9,286046996.2,N
1503751515.7,286046996.1,N
1503751535.6,286046995.2,N
1503751555.4,286046999.2,N
1503751575.2,286047000.8,N
1503751595.1,286047002.7,N
1503751596.0,286047002.7,N
1503751615.8,286047000.1,N
1503751635.6,286047002.2,N
1503751655.4,286046999.9,N
1503751675.4,286047000.4,N
1503751695.2,286046998.2,N
1503751715.1,286047002.3,N
1503751716.0,286047002.3,N
1503751735.8,286047002.7,N
1503751755.6,286047001.6,N
1503751775.5,286047001.3,N
1503751795.3,286046998.7,N
1503751815.1,286046997.3,N
1503751835.9,286046995.5,N
1503751855.7,286046995.5,N
1503751875.5,286046994.6,N
1503751895.4,286046994.2,N
1503751915.2,286046991.9,N
1503751935.0,286046993.6,N
1503751935.9,286046993.6,N
1503751955.7,286046990.5,N
1503751975.6,286046990.7,N
1503751995.4,286046992.5,N
1503752015.2,286046992.5,N
1503752035.1,286046991.9,N
1503752036.0,286046991.9,N
1503752055.8,286046991.1,N
1503752075.6,286046990.0,N
1503752095.5,286046987.6,N
1503752115.3,286046989.9,N
1503752135.1,286046986.9,N
1503752155.9,286046988.2,N
1503752175.7,286046986.9,N
1503752195.5,286046989.8,N
1503752215.4,286046991.0,N
1503752235.2,286046989.4,N
1503752255.0,286046988.9,N
1503752275.1,286046987.7,N
1503752295.9,286046983.8,P
1503752315.7,286046990.7,N
1503752335.6,286046991.7,N
1503752355.4,286046995.5,N
1503752375.2,286046996.2,N
1503752395.0,286046992.1,N
